Millinocket, ME

2:40 PM EDT on March 28, 2017 (GMT -0400)
Millinocket Municipal

Weather History for KMLT - January, 2013

Change the Weather History Date:

Sunday, January 20, 2013

  Actual Average Record
Temperature  
Mean Temperature 25 °F 13 °F  
Max Temperature 38 °F 23 °F 54 °F (1996)
Min Temperature 12 °F 3 °F -35 °F (1994)
Degree Days  
Heating Degree Days 40 52  
Month to date heating degree days 922 1014  
Since 1 July heating degree days 3796 4179  
Cooling Degree Days 0 0  
Month to date cooling degree days 0 0  
Year to date cooling degree days 0 0  
Moisture  
Dew Point 21 °F    
Average Humidity 71    
Maximum Humidity 100    
Minimum Humidity 41    
Precipitation  
Precipitation 0.36 in 0.07 in 1.11 in (1947)
Month to date precipitation 0.58 2.01  
Year to date precipitation 0.58 2.01  
Snow  
Snow 0.00 in - - ()
Snow Depth 0.00 in    
Sea Level Pressure  
Sea Level Pressure 29.64 in    
Wind  
Wind Speed 8 mph (ENE)    
Max Wind Speed 25 mph    
Max Gust Speed 39 mph    
Visibility 5 miles    
Events Fog , Snow    
T = Trace of Precipitation, MM = Missing Value Source: NWS Daily Summary

Daily Weather History Graph

Daily Weather History Graph

Search for Another Location

Airport or City:

Trip Planner

Search our weather history database for the weather conditions in past years. The results will help you decide how hot, cold, wet, or windy it might be!

Date:

Astronomy

Jan. 20, 2013 Rise Set
Actual Time 7:07 AM EST 4:24 PM EST
Civil Twilight 6:35 AM EST 4:57 PM EST
Nautical Twilight 5:58 AM EST 5:33 PM EST
Astronomical Twilight 5:23 AM EST 6:08 PM EST
Moon 11:24 AM EST (1/20) 1:35 AM EST (1/20)
Length of Visible Light 10h 21m
Length of Day
9h 16m
Waxing Gibbous, 66% of the Moon is Illuminated
Jan 20
Waxing Gibbous
Jan 26
Full
Feb 3
Last Quarter
Feb 10
New
Feb 17
First Quarter

Hourly Weather History & Observations

Time (EST) Temp. Windchill Dew Point Humidity Pressure Visibility Wind Dir Wind Speed Gust Speed Precip Events Conditions
12:53 AM 21.9 °F 15.7 °F 19.0 °F 89% 29.92 in 1.2 mi East 4.6 mph - 0.03 in Snow Light Snow
12:59 AM 21.2 °F 13.6 °F 19.4 °F 93% 29.88 in 1.2 mi East 5.8 mph - 0.00 in Snow Light Snow
1:24 AM 21.2 °F - 19.4 °F 93% 29.87 in 1.5 mi Calm Calm - 0.01 in Snow Light Snow
1:33 AM 23.0 °F 18.4 °F 19.4 °F 86% 29.87 in 1.2 mi NE 3.5 mph - 0.02 in Snow Light Snow
1:53 AM 21.9 °F - 19.9 °F 92% 29.90 in 1.2 mi Calm Calm - 0.02 in Snow Light Snow
2:05 AM 21.2 °F - 19.4 °F 93% 29.86 in 1.5 mi Calm Calm - 0.01 in Snow Light Snow
2:15 AM 21.2 °F 14.9 °F 19.4 °F 93% 29.85 in 1.2 mi East 4.6 mph - 0.02 in Snow Light Snow
2:31 AM 21.2 °F 16.4 °F 19.4 °F 93% 29.84 in 1.0 mi East 3.5 mph - 0.03 in Snow Light Snow
2:35 AM 21.2 °F 16.4 °F 19.4 °F 93% 29.84 in 0.8 mi East 3.5 mph - 0.03 in Snow Light Snow
2:53 AM 23.0 °F 18.4 °F 19.9 °F 88% 29.86 in 0.5 mi East 3.5 mph - 0.06 in Fog , Snow Snow
3:53 AM 25.0 °F 18.1 °F 21.9 °F 88% 29.82 in 0.8 mi East 5.8 mph - 0.10 in Snow Light Snow
4:02 AM 24.8 °F 16.1 °F 21.2 °F 86% 29.78 in 1.0 mi ESE 8.1 mph - 0.01 in Snow Light Snow
4:20 AM 24.8 °F - 23.0 °F 93% 29.77 in 0.8 mi Calm Calm - 0.02 in Snow Light Snow
4:30 AM 24.8 °F 20.5 °F 21.2 °F 86% 29.76 in 1.0 mi East 3.5 mph - 0.03 in Snow Light Snow
4:53 AM 25.0 °F 18.1 °F 23.0 °F 92% 29.78 in 0.8 mi East 5.8 mph - 0.05 in Snow Light Snow
5:09 AM 24.8 °F 17.9 °F 23.0 °F 93% 29.73 in 0.5 mi East 5.8 mph - 0.03 in Fog , Snow Snow
5:53 AM 25.0 °F 19.3 °F 23.0 °F 92% 29.72 in 0.8 mi East 4.6 mph - 0.09 in Snow Light Snow
6:07 AM 24.8 °F 20.5 °F 21.2 °F 86% 29.68 in 1.2 mi NE 3.5 mph - 0.01 in Snow Light Snow
6:12 AM 24.8 °F 20.5 °F 21.2 °F 86% 29.67 in 2.0 mi NE 3.5 mph - 0.01 in Snow Light Snow
6:20 AM 24.8 °F 20.5 °F 21.2 °F 86% 29.66 in 3.0 mi ENE 3.5 mph - 0.01 in Snow Light Snow
6:53 AM 25.0 °F 19.3 °F 23.0 °F 92% 29.65 in 9.0 mi ENE 4.6 mph - 0.01 in   Overcast
7:21 AM 24.8 °F 20.5 °F 23.0 °F 93% 29.59 in 10.0 mi East 3.5 mph - N/A   Overcast
7:53 AM 25.0 °F 20.7 °F 23.0 °F 92% 29.59 in 10.0 mi East 3.5 mph - N/A   Overcast
8:53 AM 26.1 °F - 23.0 °F 88% 29.54 in 10.0 mi Calm Calm - N/A   Overcast
9:53 AM 27.0 °F - 25.0 °F 92% 29.50 in 6.0 mi Calm Calm - N/A   Overcast
10:12 AM 28.4 °F - 24.8 °F 86% 29.44 in 4.0 mi Calm Calm - N/A   Overcast
10:53 AM 28.9 °F - 28.0 °F 96% 29.43 in 3.0 mi Calm Calm - N/A   Overcast
11:11 AM 30.2 °F 25.4 °F 28.4 °F 93% 29.37 in 5.0 mi Variable 4.6 mph - N/A   Overcast
11:22 AM 32.0 °F - 30.2 °F 93% 29.37 in 6.0 mi Calm Calm - N/A   Overcast
11:48 AM 35.6 °F 30.7 °F 32.0 °F 87% 29.36 in 3.0 mi Variable 5.8 mph - N/A   Scattered Clouds
11:53 AM 36.0 °F 31.1 °F 32.0 °F 86% 29.39 in 8.0 mi Variable 5.8 mph - N/A   Scattered Clouds
12:53 PM 36.0 °F 31.1 °F 30.9 °F 82% 29.39 in 10.0 mi Variable 5.8 mph - N/A   Overcast
1:53 PM 37.0 °F 31.0 °F 30.9 °F 79% 29.38 in 10.0 mi SSW 8.1 mph 17.3 mph N/A   Overcast
2:53 PM 37.0 °F 31.6 °F 30.0 °F 76% 29.40 in 10.0 mi Variable 6.9 mph - N/A   Mostly Cloudy
3:53 PM 36.0 °F 27.5 °F 26.1 °F 67% 29.44 in 10.0 mi WNW 12.7 mph 21.9 mph N/A   Overcast
4:53 PM 33.1 °F 27.7 °F 24.1 °F 70% 29.47 in 10.0 mi West 5.8 mph - 0.00 in   Partly Cloudy
5:42 PM 32.0 °F 22.5 °F 24.8 °F 75% 29.48 in 1.8 mi West 12.7 mph 20.7 mph 0.00 in Snow Light Snow
5:51 PM 32.0 °F 24.8 °F 23.0 °F 69% 29.48 in 3.0 mi West 8.1 mph 21.9 mph 0.00 in Snow Light Snow
5:53 PM 32.0 °F 25.6 °F 23.0 °F 69% 29.51 in 5.0 mi Variable 6.9 mph 21.9 mph 0.00 in Snow Light Snow
6:41 PM 28.4 °F 16.2 °F 21.2 °F 74% 29.52 in 3.0 mi West 17.3 mph 38.0 mph 0.00 in Snow Light Snow
6:53 PM 28.9 °F 14.8 °F 19.9 °F 69% 29.57 in 4.0 mi West 24.2 mph 39.1 mph 0.00 in Snow Light Snow
7:53 PM 25.0 °F 12.2 °F 9.0 °F 51% 29.62 in 10.0 mi West 16.1 mph 39.1 mph 0.00 in   Partly Cloudy
8:53 PM 21.9 °F 8.2 °F 1.9 °F 42% 29.67 in 10.0 mi West 16.1 mph 32.2 mph 0.00 in   Clear
9:53 PM 18.0 °F 4.8 °F 3.0 °F 52% 29.71 in 10.0 mi West 12.7 mph 27.6 mph N/A   Mostly Cloudy
10:53 PM 15.1 °F -0.1 °F -0.9 °F 49% 29.75 in 10.0 mi West 15.0 mph 31.1 mph N/A   Partly Cloudy
11:53 PM 12.0 °F -2.0 °F -0.9 °F 56% 29.75 in 10.0 mi West 11.5 mph 23.0 mph N/A   Clear